Home   Weather   Da Nang   Past weeks

Flag for Vietnam Past Weather in Da Nang, Vietnam — Yesterday and Last 2 Weeks

Now
88 °F

Passing clouds.


Feels Like: 98 °F
Forecast: 76 / 90 °F
Wind: 12 mph from North

Location: Da Nang Airport

Current Time: Sep 27, 2016 at 2:14:12 PM

Latest Report: Sep 27, 2016 at 1:30 PM


Visibility: N/A

Pressure: 29.71 "Hg

Humidity: 66%

Dew Point: 75 °F

Location of Da NangLocation

Past Weather in Da Nang — Graph

°F

Da Nang Temperature Yesterday

Maximum temperature yesterday: 88 °F (at 10:30 AM)
Minimum temperature yesterday: 77 °F (at 3:30 AM)
Average temperature yesterday: 82 °F

High & Low Weather Summary for the Past Weeks

 TemperatureHumidityPressure
High93 °F (Sep 16, 10:00 AM)100% (Sep 12, 12:30 PM)29.86 "Hg (Sep 12, 12:30 PM)
Low75 °F (Sep 12, 2:30 PM)53% (Sep 16, 1:00 PM)29.47 "Hg (Sep 13, 2:00 AM)
Average83 °F83%29.75 "Hg
* Reported Sep 12 12:00 PM — Sep 27 12:30 PM, Da Nang, Weather by CustomWeather, © 2016

Note: Actual official high and low records may vary slightly from our data, if they occured in-between our weather recording intervals... More about our weather records

Advertising

Da Nang Weather History for the Previous 24 Hours

Scroll right to see more
 ConditionsComfort  
Time TempWeatherWind HumidityBarometerVisibility
12:30 PM
Tue, Sep 27
90 °FPassing clouds.10 mph63%29.71 "HgN/A
12:00 PM90 °FPassing clouds.7 mph71%29.74 "HgN/A
11:00 AM90 °FPassing clouds.2 mph67%29.77 "Hg6 mi
10:30 AM90 °FPassing clouds.2 mph67%29.77 "Hg6 mi
10:00 AM90 °FPassing clouds.5 mph63%29.80 "Hg6 mi
9:30 AM90 °FPassing clouds.1 mph67%29.80 "Hg6 mi
9:00 AM90 °FPassing clouds.1 mph63%29.80 "Hg6 mi
8:30 AM88 °FPassing clouds.1 mph70%29.80 "Hg6 mi
8:00 AM88 °FPassing clouds.No wind70%29.80 "Hg6 mi
7:30 AM84 °FPassing clouds.1 mph79%29.80 "Hg5 mi
7:00 AM81 °FPassing clouds.2 mph84%29.80 "Hg5 mi
6:30 AM79 °FPassing clouds.3 mph89%29.80 "Hg5 mi
6:00 AM77 °FPassing clouds.2 mph94%29.77 "Hg5 mi
5:30 AM75 °FPassing clouds.2 mph100%29.77 "Hg5 mi
5:00 AM77 °FPassing clouds.1 mph94%29.77 "Hg5 mi
4:30 AM77 °FPassing clouds.No wind94%29.77 "Hg5 mi
4:00 AM77 °FPassing clouds.No wind94%29.77 "Hg5 mi
3:00 AM77 °FPassing clouds.1 mph94%29.77 "Hg5 mi
2:30 AM77 °FPassing clouds.No wind94%29.77 "Hg5 mi
2:00 AM77 °FPassing clouds.No wind100%29.77 "HgN/A
1:30 AM79 °FPassing clouds.1 mph94%29.77 "HgN/A
12:30 AM79 °FPassing clouds.No wind94%29.80 "HgN/A
12:00 AM79 °FPassing clouds.1 mph94%29.80 "HgN/A
11:30 PM
Mon, Sep 26
79 °FPassing clouds.2 mph94%29.80 "HgN/A
11:00 PM79 °FPassing clouds.No wind94%29.80 "HgN/A
10:30 PM79 °FPassing clouds.1 mph94%29.83 "HgN/A
9:30 PM81 °FPassing clouds.No wind89%29.83 "HgN/A
9:00 PM81 °FPassing clouds.No wind94%29.83 "HgN/A
8:30 PM81 °FPassing clouds.1 mph89%29.80 "HgN/A
8:00 PM81 °FPassing clouds.1 mph89%29.80 "HgN/A
7:30 PM81 °FPassing clouds.2 mph89%29.80 "HgN/A
7:00 PM81 °FPassing clouds.2 mph89%29.77 "HgN/A
6:30 PM81 °FPassing clouds.1 mph89%29.74 "HgN/A
6:00 PM82 °FPassing clouds.5 mph84%29.74 "HgN/A
5:30 PM82 °FScattered clouds.7 mph84%29.74 "HgN/A
5:00 PM84 °FScattered clouds.7 mph79%29.71 "HgN/A
4:30 PM84 °FScattered showers. Scattered clouds.1 mph79%29.71 "HgN/A
4:00 PM84 °FScattered clouds.5 mph79%29.71 "HgN/A
3:30 PM86 °FPartly sunny.5 mph75%29.71 "HgN/A
3:00 PM86 °FPartly sunny.8 mph75%29.71 "HgN/A
2:30 PM86 °FPartly sunny.9 mph75%29.71 "HgN/A
2:00 PM86 °FPartly sunny.8 mph75%29.74 "HgN/A
Weather by CustomWeather, © 2016

See weather overviewHow to use our weather pages